GW6267 Weather Reports


time (UTC)temp
C
wind
direction
speed
KPH
gust
KPH
rain 1hr
cm
rain 24hr
cm
rain mn
cm
humidity
%
barometer
mb
20260510071004 24 68 8.0 22.5 0.00 0.00 0.00 32 1022.8
20260510070004 24 17 9.7 16.1 0.00 0.00 0.00 31 1022.7
20260510065004 24 45 9.7 20.9 0.00 0.00 0.00 32 1022.8
20260510064004 24 61 11.3 17.7 0.00 0.00 0.00 32 1022.7
20260510063025 24 50 11.3 22.5 0.00 0.00 0.00 32 1022.9
20260510062004 24 45 8.0 16.1 0.00 0.00 0.00 32 1023.0
20260510061025 23 33 9.7 16.1 0.00 0.00 0.00 34 1023.1
20260510060004 23 64 8.0 19.3 0.00 0.00 0.00 33 1023.2
20260510055004 23 39 11.3 24.1 0.00 0.00 0.00 33 1023.4
20260510054003 23 4 8.0 19.3 0.00 0.00 0.00 34 1023.5
20260510053025 23 15 9.7 20.9 0.00 0.00 0.00 34 1023.7
20260510052004 23 33 9.7 19.3 0.00 0.00 0.00 35 1023.7
20260510051004 23 54 11.3 17.7 0.00 0.00 0.00 35 1023.9
20260510050004 23 44 12.9 22.5 0.00 0.00 0.00 34 1024.0
20260510045003 23 45 12.9 22.5 0.00 0.00 0.00 33 1024.0
20260510044004 23 15 11.3 27.4 0.00 0.00 0.00 34 1024.2
20260510043004 23 19 12.9 25.7 0.00 0.00 0.00 34 1024.4
20260510042004 23 11 11.3 25.7 0.00 0.00 0.00 35 1024.6
20260510041004 22 4 12.9 22.5 0.00 0.00 0.00 36 1024.8
20260510040004 22 11 11.3 22.5 0.00 0.00 0.00 37 1024.9
20260510035004 22 31 11.3 20.9 0.00 0.00 0.00 38 1025.1
20260510034004 22 36 11.3 20.9 0.00 0.00 0.00 38 1025.3
20260510033004 22 40 12.9 27.4 0.00 0.00 0.00 40 1025.5
20260510032004 22 34 9.7 22.5 0.00 0.00 0.00 41 1025.5
20260510031004 21 63 11.3 22.5 0.00 0.00 0.00 42 1025.7
20260510030025 21 65 11.3 22.5 0.00 0.00 0.00 44 1025.8
20260510025025 21 42 11.3 29.0 0.00 0.00 0.00 44 1025.9
20260510024004 20 44 12.9 25.7 0.00 0.00 0.00 45 1026.0
20260510023004 20 54 9.7 17.7 0.00 0.00 0.00 47 1026.0
20260510022004 20 50 12.9 24.1 0.00 0.00 0.00 47 1026.3
20260510021003 19 44 14.5 25.7 0.00 0.00 0.00 48 1026.4
20260510020004 19 35 14.5 24.1 0.00 0.00 0.00 48 1026.5
20260510015004 18 45 14.5 27.4 0.00 0.00 0.00 49 1026.6
20260510014003 18 47 11.3 24.1 0.00 0.00 0.00 50 1026.7
20260510013004 17 49 11.3 20.9 0.00 0.00 0.00 52 1026.7
20260510012003 17 65 9.7 20.9 0.00 0.00 0.00 54 1026.7
20260510011004 16 61 9.7 22.5 0.00 0.00 0.00 55 1026.7
20260510010004 16 65 9.7 19.3 0.00 0.00 0.00 57 1026.8
20260510005003 16 63 8.0 16.1 0.00 0.00 0.00 58 1026.6
20260510004025 15 67 9.7 17.7 0.00 0.00 0.00 60 1026.6
20260510003004 15 67 8.0 22.5 0.00 0.00 0.00 60 1026.6
20260510002003 14 73 9.7 17.7 0.00 0.00 0.00 61 1026.5
20260510001025 14 66 8.0 16.1 0.00 0.00 0.00 62 1026.4
20260510000004 13 66 8.0 14.5 0.00 0.00 0.00 63 1026.4
20260509235003 13 60 6.4 14.5 0.00 0.00 0.00 64 1026.5
20260509234003 12 72 4.8 9.7 0.00 0.00 0.00 65 1026.6
20260509233003 12 57 3.2 8.0 0.00 0.00 0.00 67 1026.6
20260509232003 12 56 3.2 9.7 0.00 0.00 0.00 68 1026.5
20260509231003 11 60 3.2 9.7 0.00 0.00 0.00 68 1026.4
20260509230004 11 72 3.2 8.0 0.00 0.00 0.00 68 1026.2
20260509225003 11 68 1.6 6.4 0.00 0.00 0.00 68 1026.2
20260509224004 11 76 3.2 8.0 0.00 0.00 0.00 68 1026.2
20260509223024 11 79 3.2 9.7 0.00 0.00 0.00 67 1026.2
20260509222024 11 80 1.6 6.4 0.00 0.00 0.00 67 1026.1
20260509221003 11 80 3.2 8.0 0.00 0.00 0.00 67 1026.1
20260509220003 12 81 3.2 8.0 0.00 0.00 0.00 66 1025.9
20260509215003 12 80 3.2 9.7 0.00 0.00 0.00 65 1025.9
20260509214024 12 79 4.8 11.3 0.00 0.00 0.00 65 1025.8
20260509213003 12 79 6.4 14.5 0.00 0.00 0.00 64 1025.7
20260509212003 12 82 8.0 16.1 0.00 0.00 0.00 64 1025.5
20260509211003 12 87 8.0 16.1 0.00 0.00 0.00 63 1025.5
20260509210003 12 83 6.4 14.5 0.00 0.00 0.00 64 1025.4
20260509205003 12 79 4.8 8.0 0.00 0.00 0.00 64 1025.4
20260509204003 12 81 4.8 11.3 0.00 0.00 0.00 64 1025.4
20260509203003 12 82 4.8 11.3 0.00 0.00 0.00 63 1025.1
20260509202003 12 82 6.4 11.3 0.00 0.00 0.00 63 1025.0
20260509201003 12 88 6.4 12.9 0.00 0.00 0.00 63 1024.9
20260509200003 12 86 6.4 12.9 0.00 0.00 0.00 62 1025.0
20260509195003 12 86 6.4 12.9 0.00 0.00 0.00 62 1024.9
20260509194004 12 88 6.4 12.9 0.00 0.00 0.00 62 1024.9
20260509193004 12 84 6.4 12.9 0.00 0.00 0.00 61 1025.1
20260509192004 12 81 6.4 11.3 0.00 0.00 0.00 60 1025.0
20260509191004 13 85 8.0 16.1 0.00 0.00 0.00 60 1024.9
20260509190005 12 82 8.0 16.1 0.00 0.00 0.00 60 1024.9
20260509185025 12 85 8.0 14.5 0.00 0.00 0.00 61 1024.9
20260509184004 12 85 6.4 11.3 0.00 0.00 0.00 61 1025.1
20260509183004 12 88 4.8 11.3 0.00 0.00 0.00 60 1025.0
20260509182025 12 88 6.4 9.7 0.00 0.00 0.00 60 1024.9
20260509181004 12 84 6.4 12.9 0.00 0.00 0.00 59 1024.9
20260509180004 12 87 4.8 9.7 0.00 0.00 0.00 60 1025.0
20260509175004 12 82 4.8 11.3 0.00 0.00 0.00 60 1025.0
20260509174004 12 84 3.2 6.4 0.00 0.00 0.00 60 1025.1
20260509173004 12 88 3.2 6.4 0.00 0.00 0.00 60 1025.2
20260509172004 12 87 3.2 6.4 0.00 0.00 0.00 60 1025.1
20260509171004 12 88 3.2 6.4 0.00 0.00 0.00 59 1025.0
20260509170004 12 88 3.2 8.0 0.00 0.00 0.00 58 1025.1
20260509165004 13 84 3.2 6.4 0.00 0.00 0.00 57 1025.2
20260509164004 13 89 3.2 8.0 0.00 0.00 0.00 56 1025.2
20260509163004 13 90 4.8 8.0 0.00 0.00 0.00 56 1025.2
20260509162025 13 91 4.8 8.0 0.00 0.00 0.00 55 1025.2
20260509161004 13 86 3.2 6.4 0.00 0.00 0.00 55 1025.3
20260509160025 13 96 3.2 8.0 0.00 0.00 0.00 55 1025.3
20260509155004 13 99 3.2 8.0 0.00 0.00 0.00 54 1025.4
20260509154004 13 89 3.2 8.0 0.00 0.00 0.00 56 1025.5
20260509153004 14 85 3.2 8.0 0.00 0.00 0.00 54 1025.4
20260509152025 14 92 3.2 6.4 0.00 0.00 0.00 53 1025.5
20260509151004 14 87 3.2 8.0 0.00 0.00 0.00 55 1025.6
20260509150004 14 93 1.6 6.4 0.00 0.00 0.00 54 1025.7
20260509145004 14 101 0.0 3.2 0.00 0.00 0.00 54 1025.6
20260509144025 14 99 0.0 3.2 0.00 0.00 0.00 53 1025.7
20260509143004 14 104 1.6 3.2 0.00 0.00 0.00 51 1025.9
20260509142004 14 83 1.6 3.2 0.00 0.00 0.00 52 1025.9
20260509141004 15 112 1.6 3.2 0.00 0.00 0.00 50 1025.8
20260509140005 15 85 3.2 4.8 0.00 0.00 0.00 50 1025.7
20260509135025 15 85 3.2 6.4 0.00 0.00 0.00 49 1025.6
20260509134004 15 82 4.8 6.4 0.00 0.00 0.00 48 1025.6
20260509133004 15 82 4.8 8.0 0.00 0.00 0.00 47 1025.5
20260509132004 16 85 3.2 9.7 0.00 0.00 0.00 46 1025.6
20260509131004 16 89 4.8 11.3 0.00 0.00 0.00 46 1025.5
20260509130004 16 94 4.8 12.9 0.00 0.00 0.00 46 1025.4
20260509125004 16 96 3.2 8.0 0.00 0.00 0.00 47 1025.4
20260509124004 16 96 3.2 9.7 0.00 0.00 0.00 46 1025.3
20260509123004 16 106 3.2 9.7 0.00 0.00 0.00 45 1025.3
20260509122004 16 115 3.2 6.4 0.00 0.00 0.00 45 1025.2
20260509121004 17 121 4.8 8.0 0.00 0.00 0.00 44 1025.2
20260509120004 17 124 6.4 11.3 0.00 0.00 0.00 43 1025.1
20260509115004 17 120 6.4 14.5 0.00 0.00 0.00 42 1025.1
20260509114004 17 119 6.4 14.5 0.00 0.00 0.00 42 1025.0
20260509113004 18 124 6.4 12.9 0.00 0.00 0.00 41 1024.9
20260509112004 18 123 4.8 12.9 0.00 0.00 0.00 40 1025.0
20260509111004 18 123 6.4 11.3 0.00 0.00 0.00 40 1024.9
20260509110004 18 126 4.8 11.3 0.00 0.00 0.00 39 1024.9
20260509105004 18 125 4.8 9.7 0.00 0.00 0.00 39 1024.9
20260509104004 19 127 4.8 11.3 0.00 0.00 0.00 39 1024.9
20260509103004 19 127 4.8 8.0 0.00 0.00 0.00 38 1024.8
20260509102004 20 127 4.8 11.3 0.00 0.00 0.00 38 1024.8
20260509101004 20 127 4.8 9.7 0.00 0.00 0.00 38 1024.8
20260509100005 20 126 3.2 8.0 0.00 0.00 0.00 38 1024.6
20260509095004 20 129 3.2 8.0 0.00 0.00 0.00 37 1024.6
20260509094004 21 130 4.8 9.7 0.00 0.00 0.00 36 1024.6
20260509093025 21 135 4.8 11.3 0.00 0.00 0.00 36 1024.6
20260509092004 22 134 3.2 6.4 0.00 0.00 0.00 34 1024.6
20260509091004 22 105 4.8 11.3 0.00 0.00 0.00 32 1024.5
20260509090004 22 119 3.2 9.7 0.00 0.00 0.00 31 1024.5
20260509085004 23 93 4.8 11.3 0.00 0.00 0.00 30 1024.5
20260509084004 23 83 6.4 14.5 0.00 0.00 0.00 30 1024.4
20260509083004 23 61 6.4 20.9 0.00 0.00 0.00 30 1024.4
20260509082004 23 56 6.4 14.5 0.00 0.00 0.00 30 1024.4
20260509081004 23 62 6.4 14.5 0.00 0.00 0.00 30 1024.4
20260509080004 23 96 6.4 11.3 0.00 0.00 0.00 30 1024.4
20260509075004 23 72 6.4 12.9 0.00 0.00 0.00 30 1024.4
20260509074004 23 92 8.0 19.3 0.00 0.00 0.00 30 1024.3
20260509073004 23 87 8.0 16.1 0.00 0.00 0.00 31 1024.2
20260509072025 23 116 6.4 14.5 0.00 0.00 0.00 33 1024.1